contact:dominique.lefevre@mio.osupytheas.fr, maurice.libes@osupytheas.fr, didier.mallarino@osupytheas.fr
Project:EMSO http://www.emso-fr.org/EMSO-France
Depth: 2436.0 m
Title:EMSO Ligure Ouest : Data MII capteur CSTAR
DateTime,Latitude,Longitude,Instrument_Serial,Reference_Counts,Signal_Counts,Corrected_Signal_raw_counts,Calculated_Beam_c_inverse_meters,Internal_thermistor_counts
DateTime,Latitude,Longitude,Instrument_Serial,Reference_Counts,Signal_Counts,Corrected_Signal_raw_counts,Calculated_Beam_c_inverse_meters,Internal_thermistor_counts
2023-11-25T00:00:58,42.805,6.029,CST-1368DR,4101,4357,11258,01.309,553
2023-11-25T00:04:00,42.805,6.029,CST-1368DR,4101,4358,11260,01.308,553
2023-11-25T00:07:01,42.805,6.029,CST-1368DR,4101,4358,11261,01.308,553
2023-11-25T00:10:03,42.805,6.029,CST-1368DR,4101,4357,11259,01.309,553
2023-11-25T00:13:04,42.805,6.029,CST-1368DR,4101,4356,11254,01.310,553
2023-11-25T00:16:06,42.805,6.029,CST-1368DR,4101,4358,11261,01.308,553
2023-11-25T00:19:08,42.805,6.029,CST-1368DR,4101,4358,11261,01.308,553
2023-11-25T00:22:09,42.805,6.029,CST-1368DR,4101,4358,11261,01.308,553
2023-11-25T00:25:11,42.805,6.029,CST-1368DR,4101,4358,11259,01.309,553
2023-11-25T00:28:12,42.805,6.029,CST-1368DR,4101,4357,11257,01.309,553
2023-11-25T00:31:14,42.805,6.029,CST-1368DR,4101,4357,11259,01.309,553
2023-11-25T00:34:15,42.805,6.029,CST-1368DR,4101,4357,11259,01.309,552
2023-11-25T00:37:17,42.805,6.029,CST-1368DR,4101,4354,11249,01.312,553
2023-11-25T00:40:19,42.805,6.029,CST-1368DR,4101,4358,11261,01.308,553
2023-11-25T00:43:20,42.805,6.029,CST-1368DR,4101,4358,11261,01.308,553
2023-11-25T00:46:22,42.805,6.029,CST-1368DR,4101,4356,11255,01.310,553
2023-11-25T00:49:23,42.805,6.029,CST-1368DR,4101,4356,11255,01.310,553
2023-11-25T00:52:25,42.805,6.029,CST-1368DR,4101,4356,11255,01.310,553
2023-11-25T00:55:27,42.805,6.029,CST-1368DR,4101,4358,11261,01.308,553
2023-11-25T00:58:28,42.805,6.029,CST-1368DR,4101,4358,11261,01.308,553
2023-11-25T01:01:30,42.805,6.029,CST-1368DR,4101,4357,11259,01.309,553
2023-11-25T01:04:31,42.805,6.029,CST-1368DR,4101,4357,11257,01.309,553
2023-11-25T01:07:33,42.805,6.029,CST-1368DR,4101,4360,11265,01.306,553
2023-11-25T01:10:34,42.805,6.029,CST-1368DR,4101,4359,11263,01.307,553
2023-11-25T01:13:36,42.805,6.029,CST-1368DR,4101,4358,11259,01.309,553
2023-11-25T01:16:38,42.805,6.029,CST-1368DR,4101,4359,11263,01.307,553
2023-11-25T01:19:39,42.805,6.029,CST-1368DR,4102,4359,11260,01.308,553
2023-11-25T01:22:41,42.805,6.029,CST-1368DR,4101,4359,11263,01.307,553
2023-11-25T01:25:42,42.805,6.029,CST-1368DR,4101,4357,11258,01.309,552
2023-11-25T01:28:44,42.805,6.029,CST-1368DR,4101,4358,11261,01.308,553
2023-11-25T01:31:45,42.805,6.029,CST-1368DR,4101,4356,11256,01.310,553
2023-11-25T01:34:47,42.805,6.029,CST-1368DR,4101,4357,11259,01.309,552
2023-11-25T01:37:49,42.805,6.029,CST-1368DR,4101,4359,11263,01.307,553
2023-11-25T01:40:50,42.805,6.029,CST-1368DR,4101,4357,11258,01.309,553
2023-11-25T01:43:52,42.805,6.029,CST-1368DR,4101,4357,11257,01.309,553
2023-11-25T01:46:53,42.805,6.029,CST-1368DR,4101,4358,11261,01.308,553
2023-11-25T01:49:55,42.805,6.029,CST-1368DR,4101,4358,11259,01.309,553
2023-11-25T01:52:57,42.805,6.029,CST-1368DR,4101,4358,11260,01.308,553
2023-11-25T01:55:58,42.805,6.029,CST-1368DR,4101,4354,11251,01.311,553
2023-11-25T01:59:00,42.805,6.029,CST-1368DR,4101,4358,11260,01.308,553
2023-11-25T02:02:01,42.805,6.029,CST-1368DR,4101,4357,11258,01.309,553
2023-11-25T02:05:03,42.805,6.029,CST-1368DR,4101,4359,11264,01.307,552
2023-11-25T02:08:04,42.805,6.029,CST-1368DR,4101,4355,11253,01.311,553
2023-11-25T02:11:06,42.805,6.029,CST-1368DR,4101,4358,11261,01.308,553
2023-11-25T02:14:08,42.805,6.029,CST-1368DR,4101,4358,11261,01.308,553
2023-11-25T02:17:09,42.805,6.029,CST-1368DR,4101,4357,11259,01.309,553
2023-11-25T02:20:11,42.805,6.029,CST-1368DR,4101,4356,11255,01.310,553
2023-11-25T02:23:12,42.805,6.029,CST-1368DR,4101,4358,11261,01.308,553
2023-11-25T02:26:14,42.805,6.029,CST-1368DR,4101,4358,11261,01.308,553
2023-11-25T02:29:16,42.805,6.029,CST-1368DR,4101,4358,11261,01.308,553
2023-11-25T02:32:17,42.805,6.029,CST-1368DR,4101,4356,11254,01.310,553
2023-11-25T02:35:19,42.805,6.029,CST-1368DR,4101,4358,11261,01.308,553
2023-11-25T02:38:20,42.805,6.029,CST-1368DR,4101,4356,11254,01.310,553
2023-11-25T02:41:22,42.805,6.029,CST-1368DR,4101,4356,11254,01.310,553
2023-11-25T02:44:23,42.805,6.029,CST-1368DR,4101,4354,11251,01.311,553
2023-11-25T02:47:25,42.805,6.029,CST-1368DR,4101,4356,11256,01.310,553
2023-11-25T02:50:27,42.805,6.029,CST-1368DR,4101,4356,11254,01.310,553
2023-11-25T02:53:28,42.805,6.029,CST-1368DR,4101,4355,11252,01.311,553
2023-11-25T02:56:30,42.805,6.029,CST-1368DR,4101,4355,11253,01.311,553
2023-11-25T02:59:31,42.805,6.029,CST-1368DR,4101,4356,11254,01.310,553
2023-11-25T03:02:33,42.805,6.029,CST-1368DR,4101,4357,11257,01.309,553
2023-11-25T03:05:34,42.805,6.029,CST-1368DR,4101,4356,11254,01.310,553
2023-11-25T03:08:36,42.805,6.029,CST-1368DR,4101,4355,11252,01.311,553
2023-11-25T03:11:38,42.805,6.029,CST-1368DR,4101,4356,11255,01.310,553
2023-11-25T03:14:39,42.805,6.029,CST-1368DR,4101,4364,11276,01.302,553
2023-11-25T03:17:41,42.805,6.029,CST-1368DR,4101,4358,11261,01.308,553
2023-11-25T03:20:42,42.805,6.029,CST-1368DR,4101,4358,11259,01.309,553
2023-11-25T03:23:44,42.805,6.029,CST-1368DR,4101,4356,11255,01.310,553
2023-11-25T03:26:45,42.805,6.029,CST-1368DR,4101,4357,11259,01.309,553
2023-11-25T03:29:47,42.805,6.029,CST-1368DR,4101,4359,11263,01.307,553
2023-11-25T03:32:49,42.805,6.029,CST-1368DR,4101,4359,11264,01.307,553
2023-11-25T03:35:50,42.805,6.029,CST-1368DR,4101,4358,11260,01.308,553
2023-11-25T03:38:52,42.805,6.029,CST-1368DR,4101,4359,11263,01.307,553
2023-11-25T03:41:53,42.805,6.029,CST-1368DR,4101,4356,11255,01.310,552
2023-11-25T03:44:55,42.805,6.029,CST-1368DR,4101,4360,11266,01.306,553
2023-11-25T03:47:57,42.805,6.029,CST-1368DR,4101,4360,11266,01.306,553
2023-11-25T03:50:58,42.805,6.029,CST-1368DR,4101,4359,11263,01.307,553
2023-11-25T03:54:00,42.805,6.029,CST-1368DR,4101,4358,11261,01.308,553
2023-11-25T03:57:01,42.805,6.029,CST-1368DR,4101,4359,11263,01.307,553
2023-11-25T04:00:03,42.805,6.029,CST-1368DR,4101,4360,11265,01.306,553
2023-11-25T04:03:04,42.805,6.029,CST-1368DR,4101,4360,11265,01.306,553
2023-11-25T04:06:06,42.805,6.029,CST-1368DR,4101,4359,11263,01.307,553
2023-11-25T04:09:08,42.805,6.029,CST-1368DR,4101,4358,11260,01.308,553
2023-11-25T04:12:09,42.805,6.029,CST-1368DR,4101,4358,11261,01.308,553
2023-11-25T04:15:11,42.805,6.029,CST-1368DR,4101,4356,11255,01.310,553
2023-11-25T04:18:12,42.805,6.029,CST-1368DR,4101,4358,11261,01.308,553
2023-11-25T04:21:14,42.805,6.029,CST-1368DR,4101,4357,11259,01.309,553
2023-11-25T04:24:16,42.805,6.029,CST-1368DR,4101,4357,11257,01.309,553
2023-11-25T04:27:17,42.805,6.029,CST-1368DR,4101,4359,11263,01.307,553
2023-11-25T04:30:19,42.805,6.029,CST-1368DR,4101,4359,11262,01.307,553
2023-11-25T04:33:20,42.805,6.029,CST-1368DR,4101,4365,11279,01.301,553
2023-11-25T04:36:22,42.805,6.029,CST-1368DR,4101,4359,11264,01.307,553
2023-11-25T04:39:23,42.805,6.029,CST-1368DR,4101,4356,11256,01.310,553
2023-11-25T04:42:25,42.805,6.029,CST-1368DR,4101,4358,11261,01.308,553
2023-11-25T04:45:27,42.805,6.029,CST-1368DR,4101,4358,11261,01.308,553
2023-11-25T04:48:28,42.805,6.029,CST-1368DR,4101,4359,11263,01.307,553
2023-11-25T04:51:30,42.805,6.029,CST-1368DR,4101,4361,11267,01.306,553
2023-11-25T04:54:31,42.805,6.029,CST-1368DR,4101,4361,11267,01.306,553
2023-11-25T04:57:33,42.805,6.029,CST-1368DR,4101,4357,11259,01.309,553
2023-11-25T05:00:34,42.805,6.029,CST-1368DR,4101,4359,11262,01.307,553
2023-11-25T05:03:36,42.805,6.029,CST-1368DR,4101,4358,11259,01.309,553
2023-11-25T05:06:38,42.805,6.029,CST-1368DR,4101,4359,11263,01.307,553
2023-11-25T05:09:39,42.805,6.029,CST-1368DR,4101,4359,11264,01.307,553
2023-11-25T05:12:41,42.805,6.029,CST-1368DR,4101,4359,11263,01.307,553
2023-11-25T05:15:42,42.805,6.029,CST-1368DR,4101,4358,11261,01.308,553
2023-11-25T05:18:44,42.805,6.029,CST-1368DR,4101,4359,11264,01.307,553
2023-11-25T05:21:45,42.805,6.029,CST-1368DR,4101,4361,11268,01.305,553
2023-11-25T05:24:47,42.805,6.029,CST-1368DR,4101,4361,11268,01.305,553
2023-11-25T05:27:49,42.805,6.029,CST-1368DR,4101,4359,11264,01.307,553
2023-11-25T05:30:50,42.805,6.029,CST-1368DR,4101,4359,11262,01.307,553
2023-11-25T05:33:52,42.805,6.029,CST-1368DR,4101,4359,11263,01.307,553
2023-11-25T05:36:53,42.805,6.029,CST-1368DR,4101,4358,11260,01.308,553
2023-11-25T05:39:55,42.805,6.029,CST-1368DR,4101,4359,11262,01.307,553
2023-11-25T05:42:57,42.805,6.029,CST-1368DR,4101,4357,11257,01.309,553
2023-11-25T05:45:58,42.805,6.029,CST-1368DR,4101,4359,11263,01.307,553
2023-11-25T05:49:00,42.805,6.029,CST-1368DR,4101,4360,11266,01.306,553
2023-11-25T05:52:01,42.805,6.029,CST-1368DR,4101,4360,11266,01.306,553
2023-11-25T05:55:03,42.805,6.029,CST-1368DR,4101,4359,11263,01.307,553
2023-11-25T05:58:04,42.805,6.029,CST-1368DR,4101,4343,11223,01.321,553
2023-11-25T06:01:06,42.805,6.029,CST-1368DR,4101,4337,11207,01.327,553
2023-11-25T06:04:08,42.805,6.029,CST-1368DR,4101,4344,11224,01.321,553
2023-11-25T06:07:09,42.805,6.029,CST-1368DR,4101,4352,11245,01.313,553
2023-11-25T06:10:11,42.805,6.029,CST-1368DR,4101,4342,11219,01.323,553
2023-11-25T06:13:12,42.805,6.029,CST-1368DR,4101,4353,11246,01.313,552
2023-11-25T06:16:14,42.805,6.029,CST-1368DR,4101,4350,11239,01.316,553
2023-11-25T06:19:15,42.805,6.029,CST-1368DR,4101,4351,11243,01.314,553
2023-11-25T06:22:17,42.805,6.029,CST-1368DR,4101,4367,11285,01.299,553
2023-11-25T06:25:19,42.805,6.029,CST-1368DR,4101,4365,11279,01.301,553
2023-11-25T06:28:20,42.805,6.029,CST-1368DR,4101,4363,11273,01.304,553
2023-11-25T06:31:22,42.805,6.029,CST-1368DR,4101,4364,11275,01.303,553
2023-11-25T06:34:23,42.805,6.029,CST-1368DR,4101,4365,11277,01.302,553
2023-11-25T06:37:25,42.805,6.029,CST-1368DR,4101,4364,11276,01.302,553
2023-11-25T06:40:27,42.805,6.029,CST-1368DR,4101,4362,11270,01.305,553
2023-11-25T06:43:28,42.805,6.029,CST-1368DR,4101,4362,11270,01.305,553
2023-11-25T06:46:30,42.805,6.029,CST-1368DR,4101,4360,11266,01.306,553
2023-11-25T06:49:31,42.805,6.029,CST-1368DR,4101,4364,11276,01.302,553
2023-11-25T06:52:33,42.805,6.029,CST-1368DR,4101,4360,11266,01.306,553
2023-11-25T06:55:34,42.805,6.029,CST-1368DR,4101,4361,11267,01.306,553
2023-11-25T06:58:36,42.805,6.029,CST-1368DR,4101,4362,11272,01.304,553
2023-11-25T07:01:38,42.805,6.029,CST-1368DR,4101,4362,11270,01.305,553
2023-11-25T07:04:39,42.805,6.029,CST-1368DR,4101,4362,11271,01.304,553
2023-11-25T07:07:41,42.805,6.029,CST-1368DR,4101,4361,11269,01.305,553
2023-11-25T07:10:42,42.805,6.029,CST-1368DR,4101,4362,11272,01.304,553
2023-11-25T07:13:44,42.805,6.029,CST-1368DR,4101,4362,11271,01.304,553
2023-11-25T07:16:45,42.805,6.029,CST-1368DR,4101,4360,11266,01.306,553
2023-11-25T07:19:47,42.805,6.029,CST-1368DR,4101,4352,11245,01.313,553
2023-11-25T07:22:49,42.805,6.029,CST-1368DR,4101,4363,11272,01.304,553
2023-11-25T07:25:50,42.805,6.029,CST-1368DR,4101,4363,11273,01.304,553
2023-11-25T07:28:52,42.805,6.029,CST-1368DR,4101,4362,11271,01.304,553
2023-11-25T07:31:53,42.805,6.029,CST-1368DR,4101,4362,11270,01.305,553
2023-11-25T07:34:55,42.805,6.029,CST-1368DR,4101,4362,11271,01.304,553
2023-11-25T07:37:57,42.805,6.029,CST-1368DR,4101,4362,11271,01.304,553
2023-11-25T07:40:58,42.805,6.029,CST-1368DR,4101,4362,11272,01.304,553
2023-11-25T07:44:00,42.805,6.029,CST-1368DR,4101,4361,11269,01.305,553
2023-11-25T07:47:01,42.805,6.029,CST-1368DR,4101,4361,11268,01.305,553
2023-11-25T07:50:03,42.805,6.029,CST-1368DR,4101,4363,11272,01.304,553
2023-11-25T07:53:05,42.805,6.029,CST-1368DR,4101,4362,11272,01.304,553
2023-11-25T07:56:06,42.805,6.029,CST-1368DR,4101,4362,11272,01.304,553
2023-11-25T07:59:08,42.805,6.029,CST-1368DR,4101,4363,11274,01.303,553
2023-11-25T08:02:09,42.805,6.029,CST-1368DR,4101,4363,11272,01.304,553
2023-11-25T08:05:11,42.805,6.029,CST-1368DR,4101,4364,11275,01.303,553
2023-11-25T08:08:12,42.805,6.029,CST-1368DR,4101,4362,11270,01.305,553
2023-11-25T08:11:14,42.805,6.029,CST-1368DR,4101,4364,11275,01.303,553
2023-11-25T08:14:16,42.805,6.029,CST-1368DR,4101,4363,11273,01.304,553
2023-11-25T08:17:17,42.805,6.029,CST-1368DR,4101,4365,11277,01.302,553
2023-11-25T08:20:19,42.805,6.029,CST-1368DR,4101,4363,11272,01.304,553
2023-11-25T08:23:20,42.805,6.029,CST-1368DR,4101,4363,11273,01.304,552
2023-11-25T08:26:22,42.805,6.029,CST-1368DR,4101,4361,11269,01.305,553
2023-11-25T08:29:23,42.805,6.029,CST-1368DR,4101,4363,11273,01.304,553
2023-11-25T08:32:25,42.805,6.029,CST-1368DR,4101,4361,11267,01.306,553
2023-11-25T08:35:27,42.805,6.029,CST-1368DR,4101,4363,11274,01.303,553
2023-11-25T08:38:28,42.805,6.029,CST-1368DR,4101,4363,11274,01.303,553
2023-11-25T08:41:30,42.805,6.029,CST-1368DR,4101,4364,11276,01.302,553
2023-11-25T08:44:31,42.805,6.029,CST-1368DR,4101,4364,11276,01.302,553
2023-11-25T08:47:33,42.805,6.029,CST-1368DR,4101,4362,11271,01.304,553
2023-11-25T08:50:35,42.805,6.029,CST-1368DR,4101,4363,11273,01.304,553
2023-11-25T08:53:36,42.805,6.029,CST-1368DR,4101,4364,11275,01.303,553
2023-11-25T08:56:38,42.805,6.029,CST-1368DR,4101,4363,11273,01.304,553
2023-11-25T08:59:39,42.805,6.029,CST-1368DR,4101,4362,11271,01.304,553
2023-11-25T09:02:41,42.805,6.029,CST-1368DR,4101,4360,11266,01.306,553
2023-11-25T09:05:42,42.805,6.029,CST-1368DR,4101,4362,11270,01.305,553
2023-11-25T09:08:44,42.805,6.029,CST-1368DR,4101,4363,11273,01.304,553
2023-11-25T09:11:46,42.805,6.029,CST-1368DR,4101,4359,11264,01.307,553
2023-11-25T09:14:47,42.805,6.029,CST-1368DR,4101,4362,11270,01.305,553
2023-11-25T09:17:49,42.805,6.029,CST-1368DR,4101,4363,11272,01.304,553
2023-11-25T09:20:50,42.805,6.029,CST-1368DR,4101,4362,11272,01.304,553
2023-11-25T09:23:52,42.805,6.029,CST-1368DR,4101,4363,11274,01.303,553
2023-11-25T09:26:54,42.805,6.029,CST-1368DR,4101,4365,11277,01.302,553
2023-11-25T09:29:55,42.805,6.029,CST-1368DR,4101,4364,11277,01.302,553
2023-11-25T09:32:57,42.805,6.029,CST-1368DR,4101,4364,11277,01.302,553
2023-11-25T09:35:58,42.805,6.029,CST-1368DR,4101,4363,11273,01.304,553
2023-11-25T09:39:00,42.805,6.029,CST-1368DR,4101,4363,11272,01.304,553
2023-11-25T09:42:02,42.805,6.029,CST-1368DR,4101,4364,11276,01.302,553
2023-11-25T09:45:03,42.805,6.029,CST-1368DR,4101,4364,11275,01.303,553
2023-11-25T09:48:05,42.805,6.029,CST-1368DR,4101,4363,11274,01.303,553
2023-11-25T09:51:06,42.805,6.029,CST-1368DR,4101,4362,11272,01.304,553
2023-11-25T09:54:08,42.805,6.029,CST-1368DR,4101,4362,11272,01.304,553
2023-11-25T09:57:09,42.805,6.029,CST-1368DR,4101,4362,11271,01.304,553
2023-11-25T10:00:11,42.805,6.029,CST-1368DR,4101,4367,11283,01.300,553
2023-11-25T10:03:13,42.805,6.029,CST-1368DR,4101,4363,11273,01.304,553
2023-11-25T10:06:14,42.805,6.029,CST-1368DR,4101,4362,11271,01.304,553
2023-11-25T10:09:16,42.805,6.029,CST-1368DR,4101,4362,11272,01.304,553
2023-11-25T10:12:17,42.805,6.029,CST-1368DR,4101,4362,11270,01.305,553
2023-11-25T10:15:19,42.805,6.029,CST-1368DR,4101,4363,11273,01.304,553
2023-11-25T10:18:20,42.805,6.029,CST-1368DR,4101,4362,11271,01.304,553
2023-11-25T10:21:22,42.805,6.029,CST-1368DR,4101,4362,11272,01.304,553
2023-11-25T10:24:24,42.805,6.029,CST-1368DR,4101,4363,11272,01.304,553
2023-11-25T10:27:25,42.805,6.029,CST-1368DR,4101,4363,11272,01.304,553
2023-11-25T10:30:27,42.805,6.029,CST-1368DR,4101,4361,11268,01.305,552
2023-11-25T10:33:28,42.805,6.029,CST-1368DR,4101,4362,11272,01.304,553
2023-11-25T10:36:30,42.805,6.029,CST-1368DR,4101,4362,11272,01.304,553
2023-11-25T10:39:32,42.805,6.029,CST-1368DR,4101,4363,11272,01.304,553
2023-11-25T10:42:33,42.805,6.029,CST-1368DR,4101,4363,11272,01.304,553
2023-11-25T10:45:35,42.805,6.029,CST-1368DR,4101,4361,11269,01.305,553
2023-11-25T10:48:36,42.805,6.029,CST-1368DR,4101,4362,11270,01.305,553
2023-11-25T10:51:38,42.805,6.029,CST-1368DR,4101,4360,11266,01.306,553
2023-11-25T10:54:39,42.805,6.029,CST-1368DR,4101,4363,11272,01.304,553
2023-11-25T10:57:41,42.805,6.029,CST-1368DR,4101,4362,11270,01.305,553
2023-11-25T11:00:43,42.805,6.029,CST-1368DR,4101,4362,11270,01.305,553
2023-11-25T11:03:44,42.805,6.029,CST-1368DR,4101,4363,11272,01.304,553
2023-11-25T11:06:46,42.805,6.029,CST-1368DR,4101,4363,11273,01.304,553
2023-11-25T11:09:47,42.805,6.029,CST-1368DR,4101,4362,11270,01.305,553
2023-11-25T11:12:49,42.805,6.029,CST-1368DR,4101,4358,11260,01.308,553
2023-11-25T11:15:51,42.805,6.029,CST-1368DR,4101,4362,11271,01.304,553
2023-11-25T11:18:52,42.805,6.029,CST-1368DR,4101,4362,11271,01.304,553
2023-11-25T11:21:54,42.805,6.029,CST-1368DR,4101,4363,11272,01.304,553
2023-11-25T11:24:55,42.805,6.029,CST-1368DR,4101,4362,11270,01.305,553
2023-11-25T11:27:57,42.805,6.029,CST-1368DR,4101,4362,11270,01.305,553
2023-11-25T11:31:00,42.805,6.029,CST-1368DR,4101,4358,11261,01.308,553
2023-11-25T11:34:02,42.805,6.029,CST-1368DR,4101,4361,11269,01.305,553
2023-11-25T11:37:03,42.805,6.029,CST-1368DR,4101,4361,11268,01.305,553
2023-11-25T11:40:05,42.805,6.029,CST-1368DR,4101,4362,11270,01.305,552
2023-11-25T11:43:06,42.805,6.029,CST-1368DR,4101,4363,11272,01.304,553
2023-11-25T11:46:08,42.805,6.029,CST-1368DR,4101,4362,11272,01.304,553
2023-11-25T11:49:09,42.805,6.029,CST-1368DR,4101,4358,11261,01.308,553
2023-11-25T11:52:11,42.805,6.029,CST-1368DR,4101,4361,11269,01.305,553
2023-11-25T11:55:13,42.805,6.029,CST-1368DR,4101,4363,11272,01.304,553
2023-11-25T11:58:14,42.805,6.029,CST-1368DR,4101,4363,11272,01.304,553
2023-11-25T12:01:16,42.805,6.029,CST-1368DR,4101,4362,11270,01.305,553
2023-11-25T12:04:17,42.805,6.029,CST-1368DR,4101,4362,11270,01.305,553
2023-11-25T12:07:19,42.805,6.029,CST-1368DR,4101,4362,11272,01.304,553
2023-11-25T12:10:20,42.805,6.029,CST-1368DR,4101,4359,11263,01.307,553
2023-11-25T12:13:22,42.805,6.029,CST-1368DR,4101,4359,11263,01.307,553
2023-11-25T12:16:24,42.805,6.029,CST-1368DR,4101,4359,11264,01.307,553
2023-11-25T12:19:25,42.805,6.029,CST-1368DR,4101,4358,11261,01.308,553
2023-11-25T12:22:27,42.805,6.029,CST-1368DR,4101,4359,11263,01.307,553
2023-11-25T12:25:28,42.805,6.029,CST-1368DR,4101,4361,11267,01.306,553
2023-11-25T12:28:30,42.805,6.029,CST-1368DR,4101,4358,11260,01.308,553
2023-11-25T12:31:32,42.805,6.029,CST-1368DR,4101,4360,11266,01.306,553
2023-11-25T12:34:33,42.805,6.029,CST-1368DR,4101,4362,11270,01.305,553
2023-11-25T12:37:35,42.805,6.029,CST-1368DR,4101,4362,11270,01.305,553
2023-11-25T12:40:36,42.805,6.029,CST-1368DR,4101,4361,11267,01.306,553
2023-11-25T12:43:38,42.805,6.029,CST-1368DR,4101,4361,11268,01.305,553
2023-11-25T12:46:39,42.805,6.029,CST-1368DR,4101,4361,11268,01.305,553
2023-11-25T12:49:41,42.805,6.029,CST-1368DR,4101,4358,11261,01.308,553
2023-11-25T12:52:43,42.805,6.029,CST-1368DR,4101,4359,11263,01.307,553
2023-11-25T12:55:44,42.805,6.029,CST-1368DR,4101,4359,11263,01.307,553
2023-11-25T12:58:46,42.805,6.029,CST-1368DR,4101,4358,11259,01.309,553
2023-11-25T13:01:47,42.805,6.029,CST-1368DR,4101,4357,11258,01.309,553
2023-11-25T13:04:49,42.805,6.029,CST-1368DR,4101,4360,11266,01.306,553
2023-11-25T13:07:50,42.805,6.029,CST-1368DR,4101,4360,11265,01.306,553
2023-11-25T13:10:52,42.805,6.029,CST-1368DR,4101,4359,11263,01.307,553
2023-11-25T13:13:54,42.805,6.029,CST-1368DR,4101,4359,11264,01.307,553
2023-11-25T13:16:55,42.805,6.029,CST-1368DR,4101,4355,11252,01.311,553
2023-11-25T13:19:57,42.805,6.029,CST-1368DR,4101,4359,11262,01.307,553
2023-11-25T13:22:58,42.805,6.029,CST-1368DR,4101,4360,11265,01.306,553
2023-11-25T13:26:00,42.805,6.029,CST-1368DR,4101,4356,11256,01.310,553
2023-11-25T13:29:02,42.805,6.029,CST-1368DR,4101,4357,11259,01.309,553
2023-11-25T13:32:03,42.805,6.029,CST-1368DR,4101,4358,11261,01.308,553
2023-11-25T13:35:05,42.805,6.029,CST-1368DR,4101,4361,11268,01.305,553
2023-11-25T13:38:06,42.805,6.029,CST-1368DR,4101,4360,11265,01.306,553
2023-11-25T13:41:08,42.805,6.029,CST-1368DR,4101,4359,11263,01.307,553
2023-11-25T13:44:10,42.805,6.029,CST-1368DR,4101,4359,11263,01.307,553
2023-11-25T13:47:11,42.805,6.029,CST-1368DR,4101,4360,11265,01.306,553
2023-11-25T13:50:13,42.805,6.029,CST-1368DR,4101,4361,11267,01.306,553
2023-11-25T13:53:14,42.805,6.029,CST-1368DR,4101,4359,11263,01.307,553
2023-11-25T13:56:16,42.805,6.029,CST-1368DR,4101,4360,11265,01.306,553
2023-11-25T13:59:17,42.805,6.029,CST-1368DR,4101,4359,11263,01.307,553
2023-11-25T14:02:19,42.805,6.029,CST-1368DR,4101,4360,11265,01.306,553
2023-11-25T14:05:21,42.805,6.029,CST-1368DR,4101,4360,11265,01.306,553
2023-11-25T14:08:22,42.805,6.029,CST-1368DR,4101,4358,11261,01.308,553
2023-11-25T14:11:24,42.805,6.029,CST-1368DR,4101,4359,11263,01.307,553
2023-11-25T14:14:25,42.805,6.029,CST-1368DR,4101,4359,11262,01.307,553
2023-11-25T14:17:27,42.805,6.029,CST-1368DR,4101,4360,11266,01.306,553
2023-11-25T14:20:28,42.805,6.029,CST-1368DR,4101,4357,11259,01.309,553
2023-11-25T14:23:30,42.805,6.029,CST-1368DR,4101,4359,11262,01.307,553
2023-11-25T14:26:32,42.805,6.029,CST-1368DR,4101,4359,11263,01.307,553
2023-11-25T14:29:33,42.805,6.029,CST-1368DR,4101,4365,11279,01.301,553
2023-11-25T14:32:35,42.805,6.029,CST-1368DR,4101,4360,11266,01.306,553
2023-11-25T14:35:36,42.805,6.029,CST-1368DR,4101,4360,11266,01.306,553
2023-11-25T14:38:38,42.805,6.029,CST-1368DR,4101,4360,11266,01.306,553
2023-11-25T14:41:40,42.805,6.029,CST-1368DR,4101,4356,11255,01.310,553
2023-11-25T14:44:41,42.805,6.029,CST-1368DR,4101,4358,11259,01.309,553
2023-11-25T14:47:43,42.805,6.029,CST-1368DR,4101,4359,11263,01.307,553
2023-11-25T14:50:44,42.805,6.029,CST-1368DR,4101,4358,11260,01.308,553
2023-11-25T14:53:46,42.805,6.029,CST-1368DR,4101,4359,11264,01.307,553
2023-11-25T14:56:47,42.805,6.029,CST-1368DR,4101,4355,11254,01.310,553
2023-11-25T14:59:49,42.805,6.029,CST-1368DR,4101,4356,11255,01.310,553
2023-11-25T15:02:51,42.805,6.029,CST-1368DR,4101,4361,11267,01.306,553
2023-11-25T15:05:52,42.805,6.029,CST-1368DR,4101,4361,11267,01.306,553
2023-11-25T15:08:54,42.805,6.029,CST-1368DR,4101,4358,11261,01.308,553
2023-11-25T15:11:55,42.805,6.029,CST-1368DR,4101,4356,11255,01.310,553
2023-11-25T15:14:57,42.805,6.029,CST-1368DR,4101,4360,11266,01.306,553
2023-11-25T15:17:58,42.805,6.029,CST-1368DR,4101,4358,11261,01.308,553
2023-11-25T15:21:00,42.805,6.029,CST-1368DR,4101,4358,11261,01.308,553
2023-11-25T15:24:02,42.805,6.029,CST-1368DR,4101,4359,11263,01.307,552
2023-11-25T15:27:03,42.805,6.029,CST-1368DR,4101,4359,11263,01.307,553
2023-11-25T15:30:05,42.805,6.029,CST-1368DR,4101,4359,11264,01.307,553
2023-11-25T15:33:07,42.805,6.029,CST-1368DR,4101,4359,11263,01.307,553
2023-11-25T15:36:08,42.805,6.029,CST-1368DR,4101,4360,11266,01.306,553
2023-11-25T15:39:10,42.805,6.029,CST-1368DR,4101,4358,11261,01.308,553
2023-11-25T15:42:11,42.805,6.029,CST-1368DR,4101,4360,11266,01.306,553
2023-11-25T15:45:13,42.805,6.029,CST-1368DR,4101,4359,11263,01.307,553
2023-11-25T15:48:14,42.805,6.029,CST-1368DR,4101,4361,11267,01.306,553
2023-11-25T15:51:16,42.805,6.029,CST-1368DR,4101,4361,11268,01.305,553
2023-11-25T15:54:18,42.805,6.029,CST-1368DR,4101,4359,11262,01.307,553
2023-11-25T15:57:19,42.805,6.029,CST-1368DR,4101,4365,11278,01.302,553
2023-11-25T16:00:21,42.805,6.029,CST-1368DR,4101,4360,11265,01.306,553
2023-11-25T16:03:22,42.805,6.029,CST-1368DR,4101,4358,11261,01.308,553
2023-11-25T16:06:24,42.805,6.029,CST-1368DR,4101,4359,11262,01.307,553
2023-11-25T16:09:25,42.805,6.029,CST-1368DR,4101,4359,11263,01.307,553
2023-11-25T16:12:27,42.805,6.029,CST-1368DR,4101,4359,11263,01.307,553
2023-11-25T16:15:29,42.805,6.029,CST-1368DR,4101,4355,11253,01.311,553
2023-11-25T16:18:30,42.805,6.029,CST-1368DR,4101,4359,11262,01.307,553
2023-11-25T16:21:32,42.805,6.029,CST-1368DR,4101,4357,11259,01.309,553
2023-11-25T16:24:33,42.805,6.029,CST-1368DR,4101,4356,11255,01.310,553
2023-11-25T16:27:35,42.805,6.029,CST-1368DR,4101,4358,11261,01.308,553
2023-11-25T16:30:36,42.805,6.029,CST-1368DR,4101,4359,11262,01.307,553
2023-11-25T16:33:38,42.805,6.029,CST-1368DR,4101,4359,11264,01.307,553
2023-11-25T16:36:40,42.805,6.029,CST-1368DR,4101,4356,11255,01.310,553